Погода в Агадыре

Казахстан     48°15′42″N   72°51′15″E
темп.,
°C
ветер,
м/с
пор.,
м/с
влажн.,
%
обл.,
%
осадки,
мм/ч
давл.,
гПа
погр.,
м
1 марта, пн
пн100:00−2ююз101887100 0.1 1020456
03:00−2юз8159099 0.1 1019526
06:00−2юз81593100 0.1 1019517
09:00−1юз81590100 0.0 1019587
12:00−1юз101590100 0.1 1019716
15:000юз91492100 0.1 1018687
18:00−1юз71290100 0.4 1019569
21:00−2юз71486100 0.0 1020436
2 марта, вт
вт200:00−3юз71392100 0.1 1020377
03:00−2юз61292100 0.2 1020406
06:00−3зюз4986100 0.3 1019225
09:00−3юз51094100 0.1 1019415
12:00−1зюз71091100 0.3 1018612
15:00−1зюз81087100 0.1 1018849
18:00−6зюз6128395 0.1 1019415
21:00−12з613938 0.0 1023329
3 марта, ср
ср300:00−14зюз6129552 0.0 1025277
03:00−16зюз5109573 0.0 1026201
06:00−17зюз489656 0.0 1028130
09:00−16зюз489233 0.0 1028161
12:00−11зюз6108317 0.0 1028369
15:00−9зюз610793 0.0 1027422
18:00−11юз510863 0.0 1027207
21:00−12юз69863 0.0 1028136
4 марта, чт
чт400:00−12ююз69859 0.0 1028128
03:00−11ююз6117842 0.0 1027167
06:00−12ююз598157 0.0 1027135
09:00−11ю6138955 0.0 1026213
12:00−5ю8148332 0.0 1023414
15:00−4ю8138963 0.0 1021441
18:00−4ю7139082 0.0 1019434
21:00−5ююв71589100 0.0 1016392
5 марта, пт
пт500:00−3ююз101791100 0.4 1014647
03:00−3зюз10169290 0.8 1013726
06:00−5з10169188 0.9 1018569
09:00−7з8149153 0.1 1023388
12:00−7з7109067 0.1 1027482
15:00−6зюз7117919 0.0 1029600
18:00−9зюз511799 0.0 1031254
21:00−12юз57790 0.0 103396